Simultaneous Nadir Overpasses (SNOs) Predictions

Prediction of SNOs between GOES-15 and METOP-A Satellite Orbit:

Table of predicted SNOs for the next 14.0 days since TLE Epoch: 8/14/2015
Index Date Time (GOES-15) GOES-15 Lat,Lon METOP-A Lat,Lon Distance(km) Time Diff (sec)
1 08/16/2015 06:26:25 -0.06,-134.77 -0.04,-134.70 7.84 80
2 08/18/2015 18:24:36 0.06,-134.70 -0.00,-134.26 50.01 80
3 08/20/2015 06:46:15 -0.10,-134.64 -1.05,-138.85 479.84 80
4 08/21/2015 06:22:56 -0.08,-134.61 0.08,-133.86 85.06 80
5 08/22/2015 18:44:26 0.11,-134.57 1.00,-138.41 438.76 80
6 08/23/2015 18:21:07 0.09,-134.53 -0.13,-133.42 125.40 80
7 08/25/2015 06:42:46 -0.13,-134.45 -0.92,-138.02 406.03 80
8 08/26/2015 06:19:26 -0.10,-134.41 0.21,-133.03 157.92 80
9 08/27/2015 18:40:57
